[[{"header":{"parameterUnit":"m.s-1","parameterCategory":1,"la1":30.2991,"la2":30.254,"lo1":-89.0895,"lo2":-89.0444,"dy":0.0017,"dx":0.0017,"nx":28,"ny":28,"refTime":"2025-03-10T09:00:00:Z","depth":0,"parameterNumber":2,"parameterNumberName":"U-component_of_WINDS"},"data":[0,0,0,0,0,0,0,0,0,0,0,0,0,0,0,0,0,0,0,0,0,0,0,0,0,0,0,0,0,0,0,0,0,0,0,0,0,0,0,0,0,0,0,0,0,0,0,0,0,0,0,0,0,0,0,0,0,0,2.8282,2.8283,0,2.8362,2.8363,2.8364,2.8327,2.8325,2.8323,2.8321,2.8404,2.8408,2.8412,0,0,0,0,0,0,0,0,0,0,0,0,0,2.81,2.8103,2.8282,2.8283,2.8284,2.8362,2.8363,2.8364,2.8328,2.8325,2.8323,2.832,2.8403,2.8408,2.8412,0,0,0,0,0,0,0,0,0,0,0,0,0,2.8179,2.8104,2.8282,2.8275,2.8276,2.8362,2.8363,2.8365,2.8328,2.8325,2.8322,2.8319,2.8401,2.8407,2.8413,2.8511,0,0,2.8432,2.8434,0,0,0,0,0,0,0,0,2.8175,2.8186,2.8275,2.8276,2.8276,2.8332,2.8329,2.8414,2.8329,2.8308,2.8321,2.8318,2.8383,2.839,2.8412,2.8515,2.8518,2.8432,2.8436,2.8439,2.844,0,0,0,0,0,0,0,2.8169,2.8182,2.8314,2.8277,2.8277,2.8269,2.8277,2.8345,2.8361,2.831,2.8307,2.8317,2.8382,2.8406,2.8413,2.852,2.8432,2.8438,2.8441,2.8444,2.8709,2.8712,0,0,0,0,0,0,2.8164,2.8178,2.8311,2.8316,2.8217,2.8275,2.8284,2.8317,2.836,2.8364,2.832,2.8315,2.8397,2.8406,2.8416,2.8534,2.8439,2.8444,2.8448,2.8706,2.871,2.8713,0,0,0,0,0,0,2.816,2.8176,2.8308,2.8247,2.8263,2.8281,2.8319,2.832,2.8344,2.8368,2.8371,2.8341,2.8395,2.8407,2.8488,2.8537,2.8447,2.8453,2.8702,2.8707,2.8712,2.8771,0,0,0,0,0,0,2.8155,2.8175,2.8212,2.8248,2.8266,2.8378,2.8322,2.8324,2.8354,2.8349,2.8388,2.8392,2.8393,2.8479,2.8494,2.8544,2.8457,2.8697,2.8704,2.871,2.8765,2.8778,2.8789,0,0,0,0,0,2.8149,2.8225,2.8214,2.823,2.8313,2.8381,2.8392,2.8392,2.8358,2.8396,2.8412,2.8391,2.8529,2.8488,2.8504,2.8556,2.8694,2.8702,2.871,2.876,2.8775,2.8789,0,0,0,0,0,0,2.8195,2.823,2.8217,2.8308,2.8342,2.8375,2.8422,2.8408,2.8452,2.8446,2.8444,2.8453,2.8537,2.8554,2.8508,2.8654,2.8607,2.8618,2.8639,2.8654,2.8666,2.866,2.8463,0,0,0,0,0,2.8215,2.8268,2.8296,2.8373,2.8391,2.8404,2.8434,2.8431,2.8466,2.848,2.8502,2.8537,2.8588,2.8622,2.8671,2.8768,2.8776,2.8812,2.8824,2.8833,2.8843,2.8897,2.8913,2.8738,2.8738,2.8738,0,0,2.8259,2.8284,2.8317,2.8383,2.8409,2.8464,2.8416,2.8476,2.8517,2.8489,2.8567,2.8584,2.8623,2.8713,2.8753,2.873,2.8893,2.8843,2.885,2.8855,2.8906,2.8923,2.8938,2.8744,2.8743,2.8742,0,0,2.8365,2.839,2.8457,2.8485,2.8525,2.8533,2.8549,2.8585,2.8595,2.8673,2.8654,2.8703,2.8791,2.8821,2.8847,2.8967,2.895,2.8983,2.9045,2.9097,2.9111,2.9123,2.9167,2.9182,2.8993,2.8993,2.8993,0,2.8414,2.8496,2.8494,2.8556,2.8586,2.8564,2.8633,2.8659,2.8713,2.8735,2.8708,2.8819,2.8844,2.8941,2.897,2.8992,2.9012,2.8978,2.9109,2.9121,2.9133,2.9174,2.9191,2.8997,2.8996,2.8996,2.8996,0,2.8554,2.8611,2.8661,2.8714,2.875,2.8815,2.8824,2.886,2.8854,2.8866,2.8946,2.8976,2.903,2.9053,2.9048,2.915,2.9134,2.9109,2.9061,2.9153,2.9192,2.9208,2.9002,2.9001,2.9,2.8999,0,0,2.8692,2.8744,2.8762,2.8786,2.8829,2.8874,2.8939,2.8992,2.9024,2.9062,2.9117,2.9193,2.917,2.92,2.9198,2.9245,2.9339,2.9213,2.9214,2.9236,2.9454,2.9473,2.9491,2.9328,2.9331,2.9333,2.9451,0,2.8802,2.8915,2.8916,2.902,2.9074,2.9054,2.9111,2.9144,2.9157,2.9204,2.9218,2.9273,2.9238,2.9256,2.9301,2.9318,2.9383,2.9309,2.938,2.9382,2.937,2.9512,2.9532,2.9641,2.9466,2.9468,2.947,0,2.8946,2.8989,2.9099,2.9135,2.9158,2.9209,2.9258,2.9304,2.9342,2.9348,2.9382,2.9374,2.9441,2.9392,2.9485,2.9435,2.9464,2.9477,2.9481,2.9488,2.9432,2.9523,2.9676,2.9693,2.9494,2.9492,2.9491,0,2.9036,2.9122,2.9199,2.922,2.9264,2.9301,2.9321,2.9356,2.9388,2.9432,2.9454,2.9505,2.9533,2.9573,2.9579,2.9543,2.9673,2.9624,2.9681,2.9681,2.9709,2.9707,2.987,2.9728,2.9727,2.9727,2.9727,0,2.9159,2.9227,2.924,2.9287,2.9363,2.9364,2.944,2.9457,2.9489,2.954,2.9526,2.9574,2.9579,2.963,2.9635,2.9712,2.9725,2.9732,2.9733,2.9734,2.9733,2.9752,2.9745,2.9731,2.973,2.973,2.9729,0,2.9273,2.9284,2.9366,2.9402,2.9413,2.9467,2.9498,2.9544,2.9556,2.9621,2.9636,2.9655,2.9714,2.9724,2.9793,2.9796,2.9888,2.9881,2.9876,2.9875,2.9932,2.9926,3.0113,3.0137,2.9979,2.998,2.9981,0,2.9351,2.9403,2.9444,2.9477,2.95,2.9553,2.9586,2.959,2.9626,2.9673,2.9714,2.9771,2.9816,2.9911,2.9932,2.9985,2.9979,3.0041,2.9987,2.9986,2.9981,2.9977,2.9983,3.0051,3.0053,3.0054,3.0055,0,2.9489,2.9492,2.954,2.9591,2.9631,2.9672,2.971,2.9738,2.9747,2.9788,2.9847,2.9883,2.9954,3.0011,3.0064,3.0086,3.0073,3.0072,3.0088,3.0089,3.0084,3.0089,2.9904,3.0068,3.0066,3.0065,3.0065,3.0064,2.9587,2.9633,2.9669,2.9724,2.9753,2.979,2.9835,2.9853,2.9902,2.996,2.9959,3.0025,3.0063,3.0133,3.0158,3.021,3.0191,3.0214,3.022,3.0225,3.0231,3.0076,3.022,3.022,3.0219,3.0219,3.0219,0,2.9725,2.9748,2.9798,2.9852,2.9896,2.9879,2.9921,2.9959,3.0016,3.0053,3.0098,3.0168,3.0224,3.0249,3.0304,3.0341,3.0336,3.0355,3.0353,3.0358,3.0245,3.0226,3.0358,3.0358,3.0358,3.0358,3.0358,3.0358,2.9801,2.9878,2.9886,2.9978,3.0,3.0064,3.009,3.0123,3.0152,3.023,3.0277,3.0293,3.0325,3.0383,3.0434,3.044,3.0461,3.0483,3.0486,3.038,3.0366,3.0353,3.0334,3.0487,3.0488,3.0595,3.0596,3.0597]},{"header":{"parameterUnit":"m.s-1","parameterCategory":1,"la1":30.2991,"la2":30.254,"lo1":-89.0895,"lo2":-89.0444,"dy":0.0017,"dx":0.0017,"nx":28,"ny":28,"refTime":"2025-03-10T09:00:00:Z","depth":0,"parameterNumber":3,"parameterNumberName":"V-component_of_WINDS"},"data":[0,0,0,0,0,0,0,0,0,0,0,0,0,0,0,0,0,0,0,0,0,0,0,0,0,0,0,0,0,0,0,0,0,0,0,0,0,0,0,0,0,0,0,0,0,0,0,0,0,0,0,0,0,0,0,0,0,0,-2.2702,-2.2703,0,-2.2793,-2.2794,-2.2795,-2.2788,-2.2787,-2.2786,-2.2784,-2.2878,-2.2882,-2.2886,0,0,0,0,0,0,0,0,0,0,0,0,0,-2.2526,-2.2529,-2.2702,-2.2703,-2.2704,-2.2792,-2.2794,-2.2795,-2.2789,-2.2787,-2.2785,-2.2784,-2.2877,-2.2882,-2.2886,0,0,0,0,0,0,0,0,0,0,0,0,0,-2.2608,-2.2531,-2.2702,-2.2712,-2.2714,-2.2792,-2.2794,-2.2795,-2.2789,-2.2787,-2.2785,-2.2783,-2.2876,-2.2881,-2.2887,-2.2962,0,0,-2.2904,-2.2906,0,0,0,0,0,0,0,0,-2.2604,-2.2615,-2.2709,-2.2711,-2.2713,-2.2777,-2.2766,-2.2851,-2.2789,-2.276,-2.2784,-2.2782,-2.2846,-2.2854,-2.2876,-2.2966,-2.297,-2.2904,-2.2908,-2.291,-2.2912,0,0,0,0,0,0,0,-2.2598,-2.2611,-2.2738,-2.2711,-2.2713,-2.2712,-2.2722,-2.2782,-2.2814,-2.2763,-2.2762,-2.2773,-2.2847,-2.287,-2.2878,-2.2972,-2.2904,-2.2909,-2.2913,-2.2915,-2.313,-2.3132,0,0,0,0,0,0,-2.259,-2.2606,-2.2735,-2.2741,-2.2652,-2.2717,-2.2728,-2.2759,-2.2813,-2.2819,-2.2775,-2.2773,-2.2862,-2.2871,-2.2881,-2.2973,-2.291,-2.2916,-2.2919,-2.3127,-2.313,-2.3133,0,0,0,0,0,0,-2.2586,-2.2601,-2.2731,-2.2673,-2.269,-2.2722,-2.2757,-2.2762,-2.2785,-2.2822,-2.2828,-2.2793,-2.2861,-2.2873,-2.2942,-2.2976,-2.2918,-2.2923,-2.3124,-2.3128,-2.3131,-2.3158,0,0,0,0,0,0,-2.2581,-2.26,-2.2628,-2.2674,-2.2693,-2.279,-2.2759,-2.2765,-2.2794,-2.2792,-2.284,-2.2846,-2.286,-2.2934,-2.2948,-2.2983,-2.2928,-2.3122,-2.3126,-2.313,-2.3154,-2.3162,-2.3168,0,0,0,0,0,-2.2575,-2.2632,-2.263,-2.2645,-2.2729,-2.2792,-2.2803,-2.2817,-2.2797,-2.2826,-2.285,-2.2845,-2.297,-2.2941,-2.2956,-2.2994,-2.3119,-2.3125,-2.313,-2.3151,-2.316,-2.3168,0,0,0,0,0,0,-2.259,-2.2638,-2.2636,-2.271,-2.2747,-2.2791,-2.2828,-2.2827,-2.287,-2.2867,-2.2883,-2.2894,-2.2963,-2.2985,-2.2951,-2.307,-2.3042,-2.3051,-2.3053,-2.3062,-2.3069,-2.3062,-2.2932,0,0,0,0,0,-2.2602,-2.2649,-2.2689,-2.275,-2.2769,-2.2795,-2.2823,-2.2831,-2.287,-2.2886,-2.2915,-2.2954,-2.3002,-2.3033,-2.308,-2.3157,-2.3168,-2.3191,-2.3198,-2.3204,-2.3211,-2.3255,-2.3266,-2.315,-2.315,-2.315,0,0,-2.2627,-2.2659,-2.2688,-2.2754,-2.2783,-2.2832,-2.2808,-2.2861,-2.2897,-2.2894,-2.296,-2.2983,-2.3028,-2.3101,-2.3135,-2.3122,-2.3246,-2.3211,-2.3215,-2.3219,-2.3261,-2.3272,-2.3282,-2.3153,-2.3153,-2.3152,0,0,-2.2698,-2.2727,-2.2781,-2.2812,-2.2856,-2.2874,-2.2887,-2.2932,-2.2946,-2.3014,-2.3012,-2.3056,-2.3139,-2.3171,-2.3198,-2.3282,-2.3279,-2.3297,-2.3334,-2.3376,-2.3386,-2.3394,-2.3424,-2.3435,-2.3304,-2.3304,-2.3304,0,-2.2724,-2.2796,-2.281,-2.2863,-2.2892,-2.2891,-2.2947,-2.2976,-2.3034,-2.3055,-2.3039,-2.3144,-2.3173,-2.3255,-2.3275,-2.3297,-2.3313,-2.3291,-2.3383,-2.3391,-2.3399,-2.3429,-2.344,-2.3306,-2.3305,-2.3305,-2.3305,0,-2.2826,-2.2877,-2.2916,-2.2971,-2.3005,-2.3059,-2.3082,-2.3115,-2.312,-2.3139,-2.3208,-2.3244,-2.3298,-2.3318,-2.3323,-2.3401,-2.3391,-2.3379,-2.3352,-2.3412,-2.344,-2.3451,-2.3308,-2.3308,-2.3307,-2.3307,0,0,-2.2909,-2.2972,-2.2986,-2.3011,-2.3061,-2.3101,-2.3156,-2.3208,-2.3236,-2.3277,-2.3323,-2.3394,-2.3383,-2.3414,-2.3423,-2.346,-2.3525,-2.3444,-2.3445,-2.3458,-2.3614,-2.3623,-2.3635,-2.3524,-2.3526,-2.3528,-2.361,0,-2.2985,-2.3081,-2.3095,-2.318,-2.3227,-2.3228,-2.3275,-2.3312,-2.3331,-2.3375,-2.3397,-2.3447,-2.3429,-2.3448,-2.3485,-2.351,-2.3557,-2.3504,-2.3568,-2.357,-2.3557,-2.365,-2.3659,-2.3735,-2.3621,-2.3623,-2.3624,0,-2.3086,-2.3129,-2.3219,-2.3263,-2.3283,-2.3326,-2.3376,-2.3417,-2.3459,-2.3471,-2.3505,-2.351,-2.3568,-2.3538,-2.3618,-2.3582,-2.3609,-2.3625,-2.3629,-2.3635,-2.3601,-2.3659,-2.376,-2.3771,-2.3642,-2.364,-2.3639,0,-2.3138,-2.3218,-2.3283,-2.3304,-2.3357,-2.3387,-2.3411,-2.345,-2.3481,-2.3525,-2.3546,-2.3596,-2.3623,-2.3662,-2.3681,-2.3657,-2.3761,-2.3732,-2.3773,-2.3772,-2.3794,-2.3793,-2.3901,-2.3811,-2.3811,-2.3811,-2.3811,0,-2.3222,-2.3277,-2.3307,-2.3346,-2.3408,-2.3424,-2.3485,-2.3508,-2.3544,-2.3588,-2.3592,-2.3634,-2.3656,-2.3701,-2.3716,-2.3781,-2.3793,-2.3805,-2.3809,-2.3805,-2.3804,-2.3823,-2.3819,-2.3814,-2.3813,-2.3813,-2.3812,0,-2.329,-2.3312,-2.3382,-2.3427,-2.3439,-2.3483,-2.3521,-2.356,-2.358,-2.3637,-2.3651,-2.3682,-2.3736,-2.3759,-2.3825,-2.3835,-2.391,-2.3909,-2.3895,-2.3897,-2.3936,-2.3933,-2.4061,-2.4079,-2.3977,-2.3978,-2.3979,0,-2.3342,-2.3385,-2.3434,-2.3463,-2.3488,-2.3536,-2.3567,-2.3585,-2.3618,-2.3669,-2.3703,-2.3756,-2.38,-2.3887,-2.3916,-2.3967,-2.3968,-2.4009,-2.3976,-2.3971,-2.3969,-2.3967,-2.3971,-2.4016,-2.4017,-2.4018,-2.4018,0,-2.3432,-2.3441,-2.3486,-2.3536,-2.3573,-2.3613,-2.3652,-2.3676,-2.3701,-2.3738,-2.3793,-2.3827,-2.3895,-2.3948,-2.4001,-2.4027,-2.4027,-2.4029,-2.4041,-2.4038,-2.4029,-2.4035,-2.3913,-2.4026,-2.4025,-2.4024,-2.4024,-2.4024,-2.3495,-2.3533,-2.3573,-2.3623,-2.3655,-2.3691,-2.373,-2.3754,-2.38,-2.3857,-2.3865,-2.3924,-2.3965,-2.4036,-2.4064,-2.4111,-2.4101,-2.4118,-2.4123,-2.4127,-2.413,-2.4021,-2.4121,-2.4121,-2.412,-2.412,-2.412,0,-2.3586,-2.3612,-2.3658,-2.3712,-2.3752,-2.3748,-2.3791,-2.3825,-2.3877,-2.3915,-2.3959,-2.4023,-2.4075,-2.4108,-2.4162,-2.4193,-2.4195,-2.4206,-2.4205,-2.4211,-2.4136,-2.412,-2.4204,-2.4204,-2.4204,-2.4204,-2.4204,-2.4204,-2.3638,-2.3702,-2.3716,-2.3795,-2.3822,-2.3879,-2.3904,-2.3938,-2.3969,-2.404,-2.4083,-2.4104,-2.4141,-2.4197,-2.4246,-2.4254,-2.4274,-2.4287,-2.4295,-2.4224,-2.4216,-2.4207,-2.4193,-2.4291,-2.4291,-2.4366,-2.4366,-2.4367]}]]